AAY442 KDSM-KJKA

Flight info

Callsign AAY442
Flight time N/A
Altitude 37000
Route DSM J45 IRK FTZ J187 MEM MVC STETS BFM VUSRY
Aircraft A320/M-SDE3FGHIRWY/LB1

Departure

Time 2026-04-20 18:11
Airport Des Moines International Airport (KDSM)

Arrival

Time N/A
Airport Jack Edwards National Airport (KJKA)
Time Latitude Longitude Altitude Speed Heading
2026-04-20 17:54 41.53252 -93.65050 967 ft 0 kts 87°
2026-04-20 18:02 41.53252 -93.65058 967 ft 2 kts 86°
2026-04-20 18:02 41.53250 -93.65079 978 ft 2 kts 84°
2026-04-20 18:02 41.53248 -93.65101 955 ft 2 kts 77°
2026-04-20 18:03 41.53244 -93.65122 967 ft 2 kts 59°
2026-04-20 18:03 41.53233 -93.65138 963 ft 2 kts 13°
2026-04-20 18:03 41.53223 -93.65141 965 ft 0 kts
2026-04-20 18:04 41.53230 -93.65153 965 ft 3 kts 297°
2026-04-20 18:05 41.53213 -93.65250 964 ft 11 kts 314°
2026-04-20 18:05 41.53272 -93.65331 967 ft 14 kts 313°
2026-04-20 18:05 41.53346 -93.65444 968 ft 16 kts 310°
2026-04-20 18:06 41.53416 -93.65553 967 ft 15 kts 310°
2026-04-20 18:06 41.53479 -93.65650 969 ft 14 kts 311°
2026-04-20 18:06 41.53546 -93.65749 967 ft 14 kts 312°
2026-04-20 18:06 41.53608 -93.65842 968 ft 13 kts 312°
2026-04-20 18:07 41.53665 -93.65926 963 ft 11 kts 312°
2026-04-20 18:07 41.53725 -93.66012 964 ft 17 kts 315°
2026-04-20 18:07 41.53802 -93.66121 966 ft 16 kts 312°
2026-04-20 18:07 41.53880 -93.66237 963 ft 16 kts 311°
2026-04-20 18:08 41.53958 -93.66349 964 ft 17 kts 313°
2026-04-20 18:08 41.54063 -93.66508 968 ft 30 kts 312°
2026-04-20 18:08 41.54204 -93.66711 967 ft 29 kts 313°
2026-04-20 18:08 41.54336 -93.66905 965 ft 27 kts 312°
2026-04-20 18:09 41.54458 -93.67087 965 ft 25 kts 311°
2026-04-20 18:09 41.54569 -93.67256 962 ft 23 kts 311°
2026-04-20 18:09 41.54611 -93.67371 966 ft 11 kts 250°
2026-04-20 18:09 41.54549 -93.67421 964 ft 10 kts 163°
2026-04-20 18:10 41.54496 -93.67352 963 ft 12 kts 131°
2026-04-20 18:10 41.54355 -93.67146 962 ft 62 kts 132°
2026-04-20 18:10 41.53915 -93.66501 966 ft 122 kts 131°
2026-04-20 18:10 41.53271 -93.65568 1350 ft 140 kts 136°
2026-04-20 18:11 41.52616 -93.64595 2187 ft 137 kts 138°
2026-04-20 18:11 41.51876 -93.63798 2886 ft 139 kts 160°
2026-04-20 18:11 41.50964 -93.63742 3619 ft 125 kts 186°
2026-04-20 18:11 41.50155 -93.63868 4333 ft 112 kts 188°
2026-04-20 18:12 41.49320 -93.63969 4593 ft 135 kts 188°
2026-04-20 18:12 41.48271 -93.64103 4783 ft 170 kts 190°
2026-04-20 18:12 41.46980 -93.64306 5028 ft 201 kts 190°
2026-04-20 18:12 41.45508 -93.64553 5418 ft 225 kts 189°
2026-04-20 18:13 41.43856 -93.64628 5863 ft 253 kts 170°
2026-04-20 18:13 41.42217 -93.63598 6582 ft 268 kts 150°
2026-04-20 18:13 41.40558 -93.62399 7395 ft 274 kts 158°
2026-04-20 18:13 41.38801 -93.61369 8199 ft 279 kts 161°
2026-04-20 18:14 41.36984 -93.60376 9031 ft 285 kts 162°
2026-04-20 18:14 41.35129 -93.59362 9860 ft 291 kts 162°
2026-04-20 18:14 41.33220 -93.58294 10381 ft 309 kts 161°
2026-04-20 18:14 41.31174 -93.57121 10701 ft 330 kts 160°
2026-04-20 18:15 41.29037 -93.55861 11269 ft 341 kts 160°
2026-04-20 18:15 41.26849 -93.54547 11983 ft 348 kts 159°
2026-04-20 18:15 41.24596 -93.53184 12699 ft 355 kts 159°
2026-04-20 18:15 41.22330 -93.51812 13393 ft 361 kts 158°
2026-04-20 18:16 41.20025 -93.50421 14095 ft 367 kts 158°
2026-04-20 18:16 41.17681 -93.49011 14690 ft 373 kts 158°
2026-04-20 18:16 41.15299 -93.47584 15283 ft 378 kts 158°
2026-04-20 18:16 41.12882 -93.46137 15860 ft 384 kts 158°
2026-04-20 18:17 41.10428 -93.44669 16435 ft 390 kts 158°
2026-04-20 18:17 41.07940 -93.43179 17003 ft 395 kts 158°
2026-04-20 18:17 41.05416 -93.41670 17601 ft 401 kts 158°
2026-04-20 18:17 41.02855 -93.40144 18183 ft 406 kts 158°
2026-04-20 18:18 41.00264 -93.38604 18714 ft 411 kts 158°
2026-04-20 18:18 40.97636 -93.37039 19226 ft 416 kts 158°
2026-04-20 18:18 40.94986 -93.35464 19756 ft 420 kts 158°
2026-04-20 18:18 40.92308 -93.33875 20291 ft 423 kts 158°
2026-04-20 18:19 40.89613 -93.32275 20820 ft 427 kts 158°
2026-04-20 18:19 40.86894 -93.30660 21355 ft 430 kts 158°
2026-04-20 18:19 40.84156 -93.29037 21866 ft 433 kts 158°
2026-04-20 18:19 40.81399 -93.27406 22378 ft 436 kts 158°
2026-04-20 18:20 40.78622 -93.25762 22869 ft 440 kts 158°
2026-04-20 18:20 40.75820 -93.24105 23376 ft 443 kts 158°
2026-04-20 18:20 40.72993 -93.22440 23852 ft 446 kts 158°
2026-04-20 18:20 40.70147 -93.20762 24255 ft 450 kts 158°
2026-04-20 18:21 40.67287 -93.19074 24672 ft 452 kts 158°
2026-04-20 18:21 40.64406 -93.17375 25086 ft 454 kts 158°
2026-04-20 18:21 40.61517 -93.15673 25497 ft 457 kts 158°
2026-04-20 18:21 40.58609 -93.13962 25901 ft 459 kts 158°
2026-04-20 18:22 40.55688 -93.12247 26306 ft 461 kts 158°
2026-04-20 18:22 40.52748 -93.10525 26693 ft 464 kts 158°
2026-04-20 18:22 40.49792 -93.08795 27074 ft 466 kts 158°
2026-04-20 18:22 40.46823 -93.07057 27462 ft 468 kts 158°
2026-04-20 18:23 40.43799 -93.05283 27865 ft 471 kts 158°
2026-04-20 18:23 40.40793 -93.03523 28194 ft 474 kts 158°
2026-04-20 18:23 40.38792 -93.02353 28430 ft 476 kts 158°
2026-04-20 18:23 40.35759 -93.00584 28798 ft 479 kts 158°
2026-04-20 18:24 40.32708 -92.98809 29154 ft 481 kts 158°
2026-04-20 18:24 40.29640 -92.97028 29511 ft 483 kts 158°
2026-04-20 18:24 40.26558 -92.95241 29863 ft 486 kts 158°
2026-04-20 18:24 40.23467 -92.93450 30208 ft 488 kts 158°
2026-04-20 18:25 40.20349 -92.91643 30500 ft 490 kts 157°
2026-04-20 18:25 40.17221 -92.89829 30795 ft 493 kts 158°
2026-04-20 18:25 40.14079 -92.88008 31060 ft 495 kts 158°
2026-04-20 18:25 40.10926 -92.86182 31313 ft 497 kts 158°
2026-04-20 18:26 40.07755 -92.84345 31567 ft 500 kts 158°
2026-04-20 18:26 40.04572 -92.82502 31822 ft 502 kts 158°
2026-04-20 18:26 40.01381 -92.80658 32174 ft 501 kts 158°
2026-04-20 18:26 39.98193 -92.78823 32499 ft 501 kts 158°
2026-04-20 18:27 39.95002 -92.76990 32847 ft 501 kts 158°
2026-04-20 18:27 39.91810 -92.75157 33181 ft 501 kts 158°
2026-04-20 18:27 39.88622 -92.73328 33514 ft 501 kts 158°
2026-04-20 18:27 39.85428 -92.71495 33851 ft 501 kts 158°
2026-04-20 18:28 39.82193 -92.69638 34188 ft 502 kts 158°
2026-04-20 18:28 39.78999 -92.67807 34482 ft 502 kts 158°
2026-04-20 18:28 39.75800 -92.65980 34764 ft 502 kts 158°
2026-04-20 18:28 39.72601 -92.64154 35036 ft 502 kts 158°
2026-04-20 18:29 39.69405 -92.62329 35316 ft 502 kts 158°
2026-04-20 18:29 39.66209 -92.60506 35586 ft 502 kts 158°
2026-04-20 18:29 39.63016 -92.58685 35863 ft 501 kts 158°
2026-04-20 18:29 39.59822 -92.56866 36140 ft 501 kts 159°
2026-04-20 18:30 39.56639 -92.55057 36391 ft 500 kts 159°
2026-04-20 18:30 39.53448 -92.53248 36646 ft 499 kts 159°
2026-04-20 18:30 39.50274 -92.51450 36923 ft 498 kts 159°
2026-04-20 18:30 39.47096 -92.49650 37177 ft 498 kts 159°
2026-04-20 18:31 39.43927 -92.47853 37278 ft 496 kts 159°
2026-04-20 18:31 39.40774 -92.46063 37288 ft 494 kts 159°
2026-04-20 18:31 39.34485 -92.42504 37314 ft 493 kts 159°
2026-04-20 18:32 39.28208 -92.38967 37309 ft 491 kts 160°
2026-04-20 18:32 39.21948 -92.35451 37306 ft 490 kts 160°
2026-04-20 18:33 39.15694 -92.31940 37305 ft 490 kts 160°
2026-04-20 18:33 39.09444 -92.28429 37310 ft 491 kts 160°
2026-04-20 18:34 39.03185 -92.24925 37309 ft 490 kts 160°
2026-04-20 18:34 38.96925 -92.21433 37310 ft 490 kts 160°
2026-04-20 18:35 38.90622 -92.17925 37310 ft 490 kts 160°
2026-04-20 18:35 38.84362 -92.14439 37301 ft 490 kts 160°
2026-04-20 18:36 38.78102 -92.10961 37313 ft 490 kts 160°
2026-04-20 18:36 38.71848 -92.07497 37318 ft 490 kts 160°
2026-04-20 18:37 38.65589 -92.04036 37314 ft 490 kts 160°
2026-04-20 18:37 38.59337 -92.00580 37296 ft 489 kts 160°
2026-04-20 18:38 38.53082 -91.97137 37310 ft 489 kts 160°
2026-04-20 18:38 38.46828 -91.93699 37317 ft 489 kts 160°
2026-04-20 18:39 38.40573 -91.90273 37352 ft 490 kts 161°
2026-04-20 18:39 38.34309 -91.86839 37336 ft 490 kts 160°
2026-04-20 18:40 38.28042 -91.83403 37331 ft 491 kts 161°
2026-04-20 18:40 38.21765 -91.79977 37331 ft 491 kts 161°
2026-04-20 18:41 38.15488 -91.76560 37300 ft 491 kts 161°
2026-04-20 18:41 38.09210 -91.73156 37310 ft 491 kts 161°
2026-04-20 18:42 38.02936 -91.69746 37315 ft 491 kts 161°
2026-04-20 18:42 37.96661 -91.66335 37315 ft 490 kts 161°
2026-04-20 18:43 37.90346 -91.62930 37301 ft 490 kts 161°
2026-04-20 18:43 37.84068 -91.59547 37309 ft 490 kts 161°
2026-04-20 18:44 37.77793 -91.56165 37310 ft 490 kts 161°
2026-04-20 18:44 37.71524 -91.52791 37316 ft 490 kts 161°
2026-04-20 18:45 37.65253 -91.49425 37310 ft 490 kts 161°
2026-04-20 18:45 37.58966 -91.46065 37307 ft 491 kts 161°
2026-04-20 18:46 37.52680 -91.42709 37306 ft 491 kts 161°
2026-04-20 18:46 37.46386 -91.39346 37268 ft 491 kts 162°
2026-04-20 18:47 37.40097 -91.35991 37300 ft 491 kts 162°
2026-04-20 18:47 37.33810 -91.32648 37312 ft 490 kts 162°
2026-04-20 18:48 37.27524 -91.29315 37316 ft 490 kts 162°
2026-04-20 18:48 37.21240 -91.25981 37294 ft 490 kts 162°
2026-04-20 18:49 37.14963 -91.22661 37309 ft 489 kts 162°
2026-04-20 18:49 37.08688 -91.19346 37328 ft 489 kts 162°
2026-04-20 18:50 37.02422 -91.16044 37334 ft 489 kts 162°
2026-04-20 18:50 36.96112 -91.12731 37324 ft 489 kts 163°
2026-04-20 18:51 36.89832 -91.09440 37326 ft 489 kts 163°